,,PA_Meas_PMT16A,,PR_Meas_QMR101_102,,RH_Meas_QMH101,,SR_Meas_QMS101,,TA_Meas_QMH101,,GenWind,,GenWind,
time,status,PA,status,PR,status,RH,status,SR,status,TA,status,DirAvg,status,SpdAvg,
2013-03-29, 00:00:04,VALID,918.01,VALID,0,VALID,97.1757,VALID,0.107441,VALID,20.4829,VALID,19,VALID,0,
2013-03-29, 00:01:04,VALID,917.959,VALID,0,VALID,97.1909,VALID,0.107441,VALID,20.4829,VALID,19,VALID,0,
2013-03-29, 00:02:04,VALID,917.944,VALID,0,VALID,97.1909,VALID,0,VALID,20.4829,VALID,19,VALID,0,
2013-03-29, 00:03:04,VALID,917.899,VALID,0,VALID,97.2062,VALID,0,VALID,20.4634,VALID,19,VALID,0,
2013-03-29, 00:04:04,VALID,917.884,VALID,0,VALID,97.1833,VALID,0,VALID,20.4618,VALID,19,VALID,0,
2013-03-29, 00:05:04,VALID,917.865,VALID,0,VALID,97.1986,VALID,0,VALID,20.4634,VALID,19,VALID,0,
2013-03-29, 00:06:04,VALID,917.815,VALID,0,VALID,97.1909,VALID,0,VALID,20.4634,VALID,19,VALID,0,
2013-03-29, 00:07:04,VALID,917.811,VALID,0,VALID,97.1833,VALID,0,VALID,20.4829,VALID,19,VALID,0,
2013-03-29, 00:08:04,VALID,917.78,VALID,0,VALID,97.1986,VALID,0,VALID,20.4813,VALID,19,VALID,0,
2013-03-29, 00:09:04,VALID,917.795,VALID,0,VALID,97.2062,VALID,0,VALID,20.4829,VALID,3,VALID,0,
2013-03-29, 00:10:04,VALID,917.789,VALID,0,VALID,97.2367,VALID,0,VALID,20.5024,VALID,256,VALID,0,
2013-03-29, 00:11:04,VALID,917.764,VALID,0,VALID,97.2062,VALID,0,VALID,20.4813,VALID,256,VALID,0,
2013-03-29, 00:12:04,VALID,917.756,VALID,0,VALID,97.1909,VALID,0,VALID,20.5219,VALID,256,VALID,0,
2013-03-29, 00:13:04,VALID,917.734,VALID,0,VALID,97.2062,VALID,0,VALID,20.5414,VALID,256,VALID,0,
2013-03-29, 00:14:04,VALID,917.733,VALID,0,VALID,97.2138,VALID,0,VALID,20.5204,VALID,261,VALID,0,
2013-03-29, 00:15:04,VALID,917.727,VALID,0,VALID,97.1986,VALID,0,VALID,20.5609,VALID,250,VALID,0,
2013-03-29, 00:16:04,VALID,917.727,VALID,0,VALID,97.2138,VALID,0,VALID,20.5609,VALID,244,VALID,0,
2013-03-29, 00:17:04,VALID,917.714,VALID,0,VALID,97.2138,VALID,0,VALID,20.5804,VALID,285,VALID,0,
2013-03-29, 00:18:04,VALID,917.686,VALID,0,VALID,97.2062,VALID,0,VALID,20.5789,VALID,268,VALID,0,
2013-03-29, 00:19:04,VALID,917.651,VALID,0,VALID,97.2062,VALID,0,VALID,20.5789,VALID,263,VALID,0,
2013-03-29, 00:20:04,VALID,917.66,VALID,0,VALID,97.1909,VALID,0,VALID,20.5804,VALID,259,VALID,0,
2013-03-29, 00:21:04,VALID,917.62,VALID,0,VALID,97.2138,VALID,0,VALID,20.5984,VALID,259,VALID,0,
2013-03-29, 00:22:04,VALID,917.597,VALID,0,VALID,97.2138,VALID,0,VALID,20.6194,VALID,262,VALID,0,
2013-03-29, 00:23:04,VALID,917.586,VALID,0,VALID,97.1986,VALID,0,VALID,20.678,VALID,262,VALID,0,
2013-03-29, 00:24:04,VALID,917.568,VALID,0,VALID,97.2062,VALID,0,VALID,20.6975,VALID,262,VALID,0,
2013-03-29, 00:25:04,VALID,917.548,VALID,0,VALID,97.2214,VALID,0,VALID,20.6764,VALID,254,VALID,0,
2013-03-29, 00:26:04,VALID,917.533,VALID,0,VALID,97.2214,VALID,0,VALID,20.6585,VALID,306,VALID,0,
2013-03-29, 00:27:04,VALID,917.534,VALID,0,VALID,97.2138,VALID,0,VALID,20.678,VALID,306,VALID,0,
2013-03-29, 00:28:04,VALID,917.532,VALID,0,VALID,97.1986,VALID,0,VALID,20.6975,VALID,306,VALID,0,
2013-03-29, 00:29:04,VALID,917.508,VALID,0,VALID,97.1986,VALID,0,VALID,20.6959,VALID,306,VALID,0,
2013-03-29, 00:30:04,VALID,917.5,VALID,0,VALID,97.2062,VALID,0,VALID,20.717,VALID,306,VALID,0,
2013-03-29, 00:31:04,VALID,917.469,VALID,0,VALID,97.1986,VALID,0,VALID,20.7154,VALID,18,VALID,0,
2013-03-29, 00:32:04,VALID,917.457,VALID,0,VALID,97.2138,VALID,0,VALID,20.756,VALID,14,VALID,0,
2013-03-29, 00:33:04,VALID,917.471,VALID,0,VALID,97.2138,VALID,0,VALID,20.7755,VALID,14,VALID,0,
2013-03-29, 00:34:04,VALID,917.444,VALID,0,VALID,97.1757,VALID,0.107441,VALID,20.7739,VALID,14,VALID,0,
2013-03-29, 00:35:04,VALID,917.406,VALID,0,VALID,97.2062,VALID,0,VALID,20.7755,VALID,14,VALID,0,
2013-03-29, 00:36:04,VALID,917.405,VALID,0,VALID,97.2138,VALID,0,VALID,20.717,VALID,14,VALID,0,
2013-03-29, 00:37:04,VALID,917.415,VALID,0,VALID,97.229,VALID,0,VALID,20.717,VALID,14,VALID,0,
2013-03-29, 00:38:04,VALID,917.373,VALID,0,VALID,97.2138,VALID,0.107441,VALID,20.6959,VALID,14,VALID,0,
2013-03-29, 00:39:04,VALID,917.374,VALID,0,VALID,97.2062,VALID,0,VALID,20.6959,VALID,15,VALID,0,
2013-03-29, 00:40:04,VALID,917.372,VALID,0,VALID,97.1986,VALID,0,VALID,20.6975,VALID,14,VALID,0,
2013-03-29, 00:41:04,VALID,917.355,VALID,0,VALID,97.2062,VALID,0,VALID,20.756,VALID,14,VALID,0,
2013-03-29, 00:42:04,VALID,917.353,VALID,0,VALID,97.2138,VALID,0,VALID,20.7755,VALID,13,VALID,0,
2013-03-29, 00:43:04,VALID,917.319,VALID,0,VALID,97.2062,VALID,0,VALID,20.756,VALID,10,VALID,0,
2013-03-29, 00:44:04,VALID,917.358,VALID,0,VALID,97.2214,VALID,0,VALID,20.7349,VALID,24,VALID,0,
2013-03-29, 00:45:04,VALID,917.323,VALID,0,VALID,97.1986,VALID,0,VALID,20.717,VALID,266,VALID,0,
2013-03-29, 00:46:04,VALID,917.349,VALID,0,VALID,97.229,VALID,0,VALID,20.678,VALID,207,VALID,0,
2013-03-29, 00:47:04,VALID,917.342,VALID,0,VALID,97.2138,VALID,0,VALID,20.6975,VALID,207,VALID,0,
2013-03-29, 00:48:04,VALID,917.348,VALID,0,VALID,97.2062,VALID,0,VALID,20.717,VALID,207,VALID,0,
2013-03-29, 00:49:04,VALID,917.378,VALID,0,VALID,97.2062,VALID,0,VALID,20.717,VALID,157,VALID,0,
2013-03-29, 00:50:04,VALID,917.34,VALID,0,VALID,97.2138,VALID,0,VALID,20.7365,VALID,157,VALID,0,
2013-03-29, 00:51:04,VALID,917.36,VALID,0,VALID,97.2062,VALID,0,VALID,20.717,VALID,157,VALID,0,
2013-03-29, 00:52:04,VALID,917.338,VALID,0,VALID,97.1986,VALID,0,VALID,20.7154,VALID,157,VALID,0,
2013-03-29, 00:53:04,VALID,917.349,VALID,0,VALID,97.2214,VALID,0,VALID,20.6975,VALID,157,VALID,0,
2013-03-29, 00:54:04,VALID,917.375,VALID,0,VALID,97.2214,VALID,0,VALID,20.717,VALID,34,VALID,0,
2013-03-29, 00:55:04,VALID,917.367,VALID,0,VALID,97.1986,VALID,0,VALID,20.717,VALID,34,VALID,0,
2013-03-29, 00:56:04,VALID,917.361,VALID,0,VALID,97.2214,VALID,0,VALID,20.717,VALID,34,VALID,0,
2013-03-29, 00:57:04,VALID,917.39,VALID,0,VALID,97.229,VALID,0,VALID,20.6959,VALID,34,VALID,0,
2013-03-29, 00:58:04,VALID,917.414,VALID,0,VALID,97.2214,VALID,0,VALID,20.6959,VALID,24,VALID,0,
2013-03-29, 00:59:04,VALID,917.437,VALID,0,VALID,97.2214,VALID,0,VALID,20.678,VALID,349,VALID,0,
2013-03-29, 01:00:04,VALID,917.46,VALID,0,VALID,97.2214,VALID,0,VALID,20.5984,VALID,22,VALID,0,
2013-03-29, 01:01:04,VALID,917.48,VALID,0,VALID,97.2443,VALID,0,VALID,20.6179,VALID,33,VALID,0,
2013-03-29, 01:02:04,VALID,917.492,VALID,0,VALID,97.2443,VALID,0,VALID,20.6374,VALID,324,VALID,0,
2013-03-29, 01:03:04,VALID,917.508,VALID,0,VALID,97.229,VALID,0,VALID,20.6179,VALID,24,VALID,0,
2013-03-29, 01:04:04,VALID,917.51,VALID,0,VALID,97.2367,VALID,0,VALID,20.6374,VALID,13,VALID,0,
2013-03-29, 01:05:04,VALID,917.516,VALID,0,VALID,97.2367,VALID,0,VALID,20.5984,VALID,360,VALID,0,
2013-03-29, 01:06:04,VALID,917.535,VALID,0,VALID,97.2367,VALID,0,VALID,20.5789,VALID,12,VALID,0,
2013-03-29, 01:07:04,VALID,917.503,VALID,0,VALID,97.2443,VALID,0,VALID,20.6585,VALID,20,VALID,0,
2013-03-29, 01:08:04,VALID,917.479,VALID,0,VALID,97.229,VALID,0,VALID,20.639,VALID,356,VALID,0,
2013-03-29, 01:09:04,VALID,917.497,VALID,0,VALID,97.229,VALID,0,VALID,20.5999,VALID,1,VALID,0,
2013-03-29, 01:10:04,VALID,917.462,VALID,0,VALID,97.2443,VALID,0,VALID,20.5804,VALID,20,VALID,0,
2013-03-29, 01:11:04,VALID,917.478,VALID,0,VALID,97.2367,VALID,0,VALID,20.6194,VALID,21,VALID,0,
2013-03-29, 01:12:04,VALID,917.466,VALID,0,VALID,97.2443,VALID,0,VALID,20.639,VALID,32,VALID,0,
2013-03-29, 01:13:04,VALID,917.435,VALID,0,VALID,97.2672,VALID,0,VALID,20.6194,VALID,32,VALID,0,
2013-03-29, 01:14:04,VALID,917.456,VALID,0,VALID,97.2367,VALID,0,VALID,20.5984,VALID,32,VALID,0,
2013-03-29, 01:15:04,VALID,917.432,VALID,0,VALID,97.2443,VALID,0,VALID,20.6585,VALID,32,VALID,0,
2013-03-29, 01:16:04,VALID,917.45,VALID,0,VALID,97.2367,VALID,0,VALID,20.6569,VALID,26,VALID,0,
2013-03-29, 01:17:04,VALID,917.417,VALID,0,VALID,97.2367,VALID,0,VALID,20.6179,VALID,345,VALID,0,
2013-03-29, 01:18:04,VALID,917.43,VALID,0,VALID,97.2367,VALID,0,VALID,20.6179,VALID,8,VALID,0,
2013-03-29, 01:19:04,VALID,917.437,VALID,0,VALID,97.2672,VALID,0,VALID,20.5789,VALID,337,VALID,0,
2013-03-29, 01:20:04,VALID,917.383,VALID,0,VALID,97.2443,VALID,0,VALID,20.5594,VALID,350,VALID,0,
2013-03-29, 01:21:04,VALID,917.399,VALID,0,VALID,97.2748,VALID,0,VALID,20.6194,VALID,7,VALID,0,
2013-03-29, 01:22:04,VALID,917.369,VALID,0,VALID,97.2519,VALID,0,VALID,20.5999,VALID,3,VALID,0,
2013-03-29, 01:23:04,VALID,917.37,VALID,0,VALID,97.2595,VALID,0,VALID,20.5804,VALID,6,VALID,0,
2013-03-29, 01:24:04,VALID,917.369,VALID,0,VALID,97.2672,VALID,0,VALID,20.5999,VALID,6,VALID,0,
2013-03-29, 01:25:04,VALID,917.328,VALID,0,VALID,97.2748,VALID,0,VALID,20.6585,VALID,6,VALID,0,
2013-03-29, 01:26:04,VALID,917.314,VALID,0,VALID,97.2595,VALID,0,VALID,20.678,VALID,12,VALID,0,
2013-03-29, 01:27:04,VALID,917.306,VALID,0,VALID,97.2443,VALID,0,VALID,20.717,VALID,330,VALID,0,
2013-03-29, 01:28:05,VALID,917.299,VALID,0,VALID,97.2748,VALID,0,VALID,20.6374,VALID,8,VALID,0,
2013-03-29, 01:29:05,VALID,917.274,VALID,0,VALID,97.2672,VALID,0,VALID,20.6585,VALID,25,VALID,0,
2013-03-29, 01:30:05,VALID,917.27,VALID,0,VALID,97.2595,VALID,0,VALID,20.678,VALID,29,VALID,0,
2013-03-29, 01:31:05,VALID,917.243,VALID,0,VALID,97.2595,VALID,0,VALID,20.6764,VALID,28,VALID,0,
2013-03-29, 01:32:05,VALID,917.229,VALID,0,VALID,97.2519,VALID,0,VALID,20.6764,VALID,28,VALID,0,
2013-03-29, 01:33:05,VALID,917.211,VALID,0,VALID,97.2595,VALID,0,VALID,20.6975,VALID,27,VALID,0,
2013-03-29, 01:34:05,VALID,917.187,VALID,0,VALID,97.2595,VALID,0,VALID,20.6975,VALID,27,VALID,0,
2013-03-29, 01:35:05,VALID,917.161,VALID,0,VALID,97.2595,VALID,0.107441,VALID,20.6764,VALID,27,VALID,0,
2013-03-29, 01:36:05,VALID,917.143,VALID,0,VALID,97.2595,VALID,0,VALID,20.6569,VALID,27,VALID,0,
2013-03-29, 01:37:05,VALID,917.125,VALID,0,VALID,97.2595,VALID,0,VALID,20.6569,VALID,9,VALID,0,
2013-03-29, 01:38:05,VALID,917.124,VALID,0,VALID,97.2748,VALID,0.107441,VALID,20.6179,VALID,1,VALID,0,
2013-03-29, 01:39:05,VALID,917.112,VALID,0,VALID,97.2748,VALID,0.107441,VALID,20.5188,VALID,20,VALID,0,
2013-03-29, 01:40:05,VALID,917.068,VALID,0,VALID,97.2672,VALID,0.107441,VALID,20.5009,VALID,29,VALID,0,
2013-03-29, 01:41:05,VALID,917.083,VALID,0,VALID,97.29,VALID,0.107441,VALID,20.5204,VALID,4,VALID,0,
2013-03-29, 01:42:05,VALID,917.07,VALID,0,VALID,97.2748,VALID,0.107441,VALID,20.5414,VALID,347,VALID,0,
2013-03-29, 01:43:05,VALID,917.052,VALID,0,VALID,97.2748,VALID,0.107441,VALID,20.5204,VALID,351,VALID,0,
2013-03-29, 01:44:05,VALID,917.073,VALID,0,VALID,97.2748,VALID,0,VALID,20.5204,VALID,1,VALID,0,
2013-03-29, 01:45:05,VALID,917.001,VALID,0,VALID,97.29,VALID,0.107441,VALID,20.5009,VALID,349,VALID,0,
2013-03-29, 01:46:05,VALID,917.018,VALID,0,VALID,97.2748,VALID,0,VALID,20.5219,VALID,27,VALID,0,
2013-03-29, 01:47:05,VALID,916.989,VALID,0,VALID,97.2977,VALID,0,VALID,20.5414,VALID,351,VALID,0,
2013-03-29, 01:48:05,VALID,916.99,VALID,0,VALID,97.2977,VALID,0,VALID,20.5219,VALID,352,VALID,0,
2013-03-29, 01:49:05,VALID,916.946,VALID,0,VALID,97.2977,VALID,0,VALID,20.5235,VALID,351,VALID,0,
2013-03-29, 01:50:05,VALID,916.943,VALID,0,VALID,97.29,VALID,0,VALID,20.5219,VALID,351,VALID,0,
2013-03-29, 01:51:05,VALID,916.94,VALID,0,VALID,97.29,VALID,0,VALID,20.5024,VALID,351,VALID,0,
2013-03-29, 01:52:05,VALID,916.95,VALID,0,VALID,97.2977,VALID,0,VALID,20.5024,VALID,21,VALID,0,
2013-03-29, 01:53:05,VALID,916.911,VALID,0,VALID,97.3129,VALID,0,VALID,20.4829,VALID,14,VALID,0,
2013-03-29, 01:54:05,VALID,916.924,VALID,0,VALID,97.3129,VALID,0,VALID,20.5024,VALID,16,VALID,0,
2013-03-29, 01:55:05,VALID,916.917,VALID,0,VALID,97.3053,VALID,0,VALID,20.5235,VALID,356,VALID,0,
2013-03-29, 01:56:05,VALID,916.921,VALID,0,VALID,97.2977,VALID,0,VALID,20.5219,VALID,29,VALID,0,
2013-03-29, 01:57:05,VALID,916.921,VALID,0,VALID,97.2977,VALID,0,VALID,20.5609,VALID,28,VALID,0,
2013-03-29, 01:58:05,VALID,916.919,VALID,0,VALID,97.2824,VALID,0,VALID,20.5804,VALID,23,VALID,0,
2013-03-29, 01:59:05,VALID,916.947,VALID,0,VALID,97.2977,VALID,0,VALID,20.5609,VALID,23,VALID,0,
2013-03-29, 02:00:05,VALID,916.951,VALID,0,VALID,97.29,VALID,0,VALID,20.5625,VALID,23,VALID,0,
2013-03-29, 02:01:05,VALID,916.953,VALID,0,VALID,97.3053,VALID,0.107441,VALID,20.5204,VALID,23,VALID,0,
2013-03-29, 02:02:05,VALID,916.951,VALID,0,VALID,97.2977,VALID,0.107441,VALID,20.5204,VALID,23,VALID,0,
2013-03-29, 02:03:05,VALID,916.917,VALID,0,VALID,97.2977,VALID,0,VALID,20.5009,VALID,352,VALID,0,
2013-03-29, 02:04:05,VALID,916.923,VALID,0,VALID,97.3053,VALID,0.107441,VALID,20.4618,VALID,310,VALID,0,
2013-03-29, 02:05:05,VALID,916.889,VALID,0,VALID,97.3053,VALID,0.107441,VALID,20.4618,VALID,288,VALID,0,
2013-03-29, 02:06:05,VALID,916.879,VALID,0,VALID,97.3053,VALID,0.107441,VALID,20.4618,VALID,337,VALID,0,
2013-03-29, 02:07:05,VALID,916.836,VALID,0,VALID,97.29,VALID,0.107441,VALID,20.4813,VALID,337,VALID,0,
2013-03-29, 02:08:05,VALID,916.841,VALID,0,VALID,97.29,VALID,0,VALID,20.5009,VALID,333,VALID,0,
2013-03-29, 02:09:05,VALID,916.847,VALID,0,VALID,97.3053,VALID,0,VALID,20.5024,VALID,13,VALID,0,
2013-03-29, 02:10:05,VALID,916.819,VALID,0,VALID,97.3205,VALID,0,VALID,20.4829,VALID,342,VALID,0,
2013-03-29, 02:11:05,VALID,916.813,VALID,0,VALID,97.3129,VALID,0.107441,VALID,20.4423,VALID,355,VALID,0,
2013-03-29, 02:12:05,VALID,916.825,VALID,0,VALID,97.3205,VALID,0,VALID,20.4829,VALID,356,VALID,0,
2013-03-29, 02:13:05,VALID,916.815,VALID,0,VALID,97.2977,VALID,0,VALID,20.5219,VALID,23,VALID,0,
2013-03-29, 02:14:05,VALID,916.836,VALID,0,VALID,97.3129,VALID,0.107441,VALID,20.5219,VALID,22,VALID,0,
2013-03-29, 02:15:05,VALID,916.789,VALID,0,VALID,97.2977,VALID,0.107441,VALID,20.4618,VALID,357,VALID,0,
2013-03-29, 02:16:05,VALID,916.782,VALID,0,VALID,97.3129,VALID,0.107441,VALID,20.4228,VALID,344,VALID,0,
2013-03-29, 02:17:05,VALID,916.762,VALID,0,VALID,97.3281,VALID,0.107441,VALID,20.4228,VALID,23,VALID,0,
2013-03-29, 02:18:05,VALID,916.792,VALID,0,VALID,97.3358,VALID,0.107441,VALID,20.4813,VALID,26,VALID,0,
2013-03-29, 02:19:05,VALID,916.767,VALID,0,VALID,97.3205,VALID,0.107441,VALID,20.5009,VALID,22,VALID,0,
2013-03-29, 02:20:05,VALID,916.754,VALID,0,VALID,97.3281,VALID,0.107441,VALID,20.5204,VALID,4,VALID,0,
2013-03-29, 02:21:05,VALID,916.756,VALID,0,VALID,97.3281,VALID,0,VALID,20.5009,VALID,21,VALID,0,
2013-03-29, 02:22:05,VALID,916.744,VALID,0,VALID,97.3358,VALID,0.107441,VALID,20.4618,VALID,31,VALID,0,
2013-03-29, 02:23:05,VALID,916.761,VALID,0,VALID,97.3434,VALID,0.107441,VALID,20.4228,VALID,276,VALID,0,
2013-03-29, 02:24:05,VALID,916.76,VALID,0,VALID,97.3053,VALID,0.107441,VALID,20.4228,VALID,15,VALID,0,
2013-03-29, 02:25:05,VALID,916.751,VALID,0,VALID,97.3205,VALID,0.107441,VALID,20.4228,VALID,10,VALID,0,
2013-03-29, 02:26:05,VALID,916.77,VALID,0,VALID,97.3205,VALID,0,VALID,20.3838,VALID,12,VALID,0,
2013-03-29, 02:27:05,VALID,916.774,VALID,0,VALID,97.3358,VALID,0.107441,VALID,20.4228,VALID,23,VALID,0,
2013-03-29, 02:28:05,VALID,916.784,VALID,0,VALID,97.3281,VALID,0.107441,VALID,20.4423,VALID,24,VALID,0,
2013-03-29, 02:29:05,VALID,916.789,VALID,0,VALID,97.3358,VALID,0,VALID,20.4244,VALID,13,VALID,0,
2013-03-29, 02:30:05,VALID,916.791,VALID,0,VALID,97.3281,VALID,0.107441,VALID,20.4033,VALID,26,VALID,0,
2013-03-29, 02:31:05,VALID,916.809,VALID,0,VALID,97.3281,VALID,0,VALID,20.4244,VALID,17,VALID,0,
2013-03-29, 02:32:05,VALID,916.802,VALID,0,VALID,97.3434,VALID,0,VALID,20.3464,VALID,5,VALID,0,
2013-03-29, 02:33:05,VALID,916.76,VALID,0,VALID,97.3434,VALID,0,VALID,20.3464,VALID,22,VALID,0,
2013-03-29, 02:34:05,VALID,916.766,VALID,0,VALID,97.3434,VALID,0.107441,VALID,20.3074,VALID,1,VALID,0,
2013-03-29, 02:35:05,VALID,916.738,VALID,0,VALID,97.3663,VALID,0,VALID,20.3074,VALID,342,VALID,0,
2013-03-29, 02:36:05,VALID,916.713,VALID,0,VALID,97.3281,VALID,0,VALID,20.3269,VALID,22,VALID,0,
2013-03-29, 02:37:05,VALID,916.678,VALID,0,VALID,97.3434,VALID,0,VALID,20.3269,VALID,3,VALID,0,
2013-03-29, 02:38:05,VALID,916.675,VALID,0,VALID,97.3586,VALID,0.107441,VALID,20.2879,VALID,29,VALID,0,
2013-03-29, 02:39:05,VALID,916.654,VALID,0,VALID,97.351,VALID,0,VALID,20.2879,VALID,34,VALID,0,
2013-03-29, 02:40:05,VALID,916.603,VALID,0,VALID,97.3663,VALID,0,VALID,20.3074,VALID,27,VALID,0,
2013-03-29, 02:41:05,VALID,916.583,VALID,0,VALID,97.351,VALID,0,VALID,20.3074,VALID,8,VALID,0,
2013-03-29, 02:42:05,VALID,916.535,VALID,0,VALID,97.351,VALID,0,VALID,20.2684,VALID,334,VALID,0,
2013-03-29, 02:43:05,VALID,916.518,VALID,0,VALID,97.3815,VALID,0,VALID,20.2489,VALID,4,VALID,0,
2013-03-29, 02:44:05,VALID,916.493,VALID,0,VALID,97.3663,VALID,0,VALID,20.2293,VALID,1,VALID,0,
2013-03-29, 02:45:05,VALID,916.472,VALID,0,VALID,97.3663,VALID,0,VALID,20.2083,VALID,346,VALID,0,
2013-03-29, 02:46:05,VALID,916.49,VALID,0,VALID,97.3663,VALID,0,VALID,20.2293,VALID,353,VALID,0,
2013-03-29, 02:47:05,VALID,916.465,VALID,0,VALID,97.3739,VALID,0,VALID,20.1888,VALID,1,VALID,0,
2013-03-29, 02:48:05,VALID,916.425,VALID,0,VALID,97.3663,VALID,0,VALID,20.2489,VALID,1,VALID,0,
2013-03-29, 02:49:05,VALID,916.425,VALID,0,VALID,97.3891,VALID,0.107441,VALID,20.2668,VALID,2,VALID,0,
2013-03-29, 02:50:05,VALID,916.366,VALID,0,VALID,97.351,VALID,0,VALID,20.2863,VALID,27,VALID,0,
2013-03-29, 02:51:05,VALID,916.331,VALID,0,VALID,97.3739,VALID,0.107441,VALID,20.2668,VALID,359,VALID,0,
2013-03-29, 02:52:05,VALID,916.351,VALID,0,VALID,97.351,VALID,0,VALID,20.3074,VALID,359,VALID,0,
2013-03-29, 02:53:05,VALID,916.314,VALID,0,VALID,97.3815,VALID,0.107441,VALID,20.2879,VALID,351,VALID,0,
2013-03-29, 02:54:05,VALID,916.271,VALID,0,VALID,97.3815,VALID,0.107441,VALID,20.2473,VALID,351,VALID,0,
2013-03-29, 02:55:05,VALID,916.261,VALID,0,VALID,97.3586,VALID,0,VALID,20.2489,VALID,351,VALID,0,
2013-03-29, 02:56:05,VALID,916.258,VALID,0,VALID,97.3739,VALID,0,VALID,20.2278,VALID,351,VALID,0,
2013-03-29, 02:57:05,VALID,916.204,VALID,0,VALID,97.3891,VALID,0,VALID,20.2473,VALID,351,VALID,0,
2013-03-29, 02:58:05,VALID,916.205,VALID,0,VALID,97.3663,VALID,0.107441,VALID,20.2668,VALID,355,VALID,0,
2013-03-29, 02:59:05,VALID,916.176,VALID,0,VALID,97.3739,VALID,0,VALID,20.2879,VALID,10,VALID,0,
2013-03-29, 03:00:05,VALID,916.125,VALID,0,VALID,97.3739,VALID,0,VALID,20.3269,VALID,10,VALID,0,
2013-03-29, 03:01:05,VALID,916.125,VALID,0,VALID,97.3663,VALID,0.107441,VALID,20.3253,VALID,23,VALID,0,
2013-03-29, 03:02:05,VALID,916.091,VALID,0,VALID,97.351,VALID,0,VALID,20.3854,VALID,344,VALID,0,
2013-03-29, 03:03:05,VALID,916.079,VALID,0,VALID,97.3663,VALID,0,VALID,20.3659,VALID,344,VALID,0,
2013-03-29, 03:04:05,VALID,916.055,VALID,0,VALID,97.3815,VALID,0,VALID,20.3643,VALID,13,VALID,0,
2013-03-29, 03:05:05,VALID,916.057,VALID,0,VALID,97.3815,VALID,0,VALID,20.3448,VALID,20,VALID,0,
2013-03-29, 03:06:05,VALID,916.004,VALID,0,VALID,97.3663,VALID,0,VALID,20.3269,VALID,20,VALID,0,
2013-03-29, 03:07:05,VALID,916.008,VALID,0,VALID,97.3586,VALID,0,VALID,20.3074,VALID,20,VALID,0,
2013-03-29, 03:08:05,VALID,915.991,VALID,0,VALID,97.3815,VALID,0,VALID,20.3074,VALID,30,VALID,0,
2013-03-29, 03:09:05,VALID,915.959,VALID,0,VALID,97.3663,VALID,0,VALID,20.3269,VALID,30,VALID,0,
2013-03-29, 03:10:05,VALID,915.952,VALID,0,VALID,97.3663,VALID,0,VALID,20.3659,VALID,30,VALID,0,
2013-03-29, 03:11:05,VALID,915.93,VALID,0,VALID,97.3739,VALID,0,VALID,20.3074,VALID,25,VALID,0,
2013-03-29, 03:12:05,VALID,915.907,VALID,0,VALID,97.3739,VALID,0,VALID,20.2684,VALID,360,VALID,0,
2013-03-29, 03:13:05,VALID,915.9,VALID,0,VALID,97.3815,VALID,0,VALID,20.2293,VALID,7,VALID,0,
2013-03-29, 03:14:05,VALID,915.899,VALID,0,VALID,97.3968,VALID,0,VALID,20.2293,VALID,7,VALID,0,
2013-03-29, 03:15:05,VALID,915.889,VALID,0,VALID,97.3968,VALID,0,VALID,20.2083,VALID,7,VALID,0,
2013-03-29, 03:16:05,VALID,915.841,VALID,0,VALID,97.3815,VALID,0,VALID,20.2293,VALID,7,VALID,0,
2013-03-29, 03:17:05,VALID,915.833,VALID,0,VALID,97.3891,VALID,0,VALID,20.2293,VALID,7,VALID,0,
2013-03-29, 03:18:05,VALID,915.792,VALID,0,VALID,97.4044,VALID,0,VALID,20.2098,VALID,20,VALID,0,
2013-03-29, 03:19:05,VALID,915.778,VALID,0,VALID,97.3968,VALID,0,VALID,20.1708,VALID,21,VALID,0,
2013-03-29, 03:20:05,VALID,915.745,VALID,0,VALID,97.3891,VALID,0,VALID,20.1708,VALID,14,VALID,0,
2013-03-29, 03:21:05,VALID,915.745,VALID,0,VALID,97.4044,VALID,0,VALID,20.1303,VALID,14,VALID,0,
2013-03-29, 03:22:05,VALID,915.727,VALID,0,VALID,97.3891,VALID,0,VALID,20.1513,VALID,15,VALID,0,
2013-03-29, 03:23:05,VALID,915.737,VALID,0,VALID,97.4196,VALID,0,VALID,20.1318,VALID,15,VALID,0,
2013-03-29, 03:24:05,VALID,915.715,VALID,0,VALID,97.3968,VALID,0,VALID,20.1318,VALID,14,VALID,0,
2013-03-29, 03:25:05,VALID,915.742,VALID,0,VALID,97.3968,VALID,0,VALID,20.0913,VALID,15,VALID,0,
2013-03-29, 03:26:05,VALID,915.736,VALID,0,VALID,97.4196,VALID,0,VALID,20.1318,VALID,15,VALID,0,
2013-03-29, 03:27:05,VALID,915.714,VALID,0,VALID,97.4044,VALID,0,VALID,20.1318,VALID,14,VALID,0,
2013-03-29, 03:28:05,VALID,915.692,VALID,0,VALID,97.4044,VALID,0,VALID,20.0928,VALID,15,VALID,0,
2013-03-29, 03:29:05,VALID,915.678,VALID,0,VALID,97.4196,VALID,0,VALID,20.0733,VALID,15,VALID,0,
2013-03-29, 03:30:05,VALID,915.624,VALID,0,VALID,97.4196,VALID,0,VALID,20.0733,VALID,14,VALID,0,
2013-03-29, 03:31:05,VALID,915.58,VALID,0,VALID,97.412,VALID,0,VALID,20.0733,VALID,14,VALID,0,
2013-03-29, 03:32:05,VALID,915.545,VALID,0,VALID,97.412,VALID,0,VALID,20.0523,VALID,14,VALID,0,
2013-03-29, 03:33:05,VALID,915.487,VALID,0,VALID,97.4273,VALID,0,VALID,20.0733,VALID,14,VALID,0,
2013-03-29, 03:34:05,VALID,915.452,VALID,0,VALID,97.4273,VALID,0,VALID,20.0928,VALID,14,VALID,0,
2013-03-29, 03:35:05,VALID,915.402,VALID,0,VALID,97.4196,VALID,0,VALID,20.0733,VALID,14,VALID,0,
2013-03-29, 03:36:05,VALID,915.359,VALID,0,VALID,97.4273,VALID,0,VALID,20.0733,VALID,14,VALID,0,
2013-03-29, 03:37:05,VALID,915.342,VALID,0,VALID,97.4349,VALID,0,VALID,20.0733,VALID,283,VALID,0,
2013-03-29, 03:38:05,VALID,915.363,VALID,0,VALID,97.412,VALID,0,VALID,20.0733,VALID,283,VALID,0,
2013-03-29, 03:39:05,VALID,915.338,VALID,0,VALID,97.4349,VALID,0,VALID,20.0538,VALID,283,VALID,0,
2013-03-29, 03:40:05,VALID,915.366,VALID,0,VALID,97.4196,VALID,0,VALID,20.0733,VALID,283,VALID,0,
2013-03-29, 03:41:05,VALID,915.399,VALID,0,VALID,97.4273,VALID,0,VALID,20.0733,VALID,283,VALID,0,
2013-03-29, 03:42:05,VALID,915.393,VALID,0,VALID,97.4196,VALID,0,VALID,20.0733,VALID,283,VALID,0,
2013-03-29, 03:43:05,VALID,915.398,VALID,0,VALID,97.4196,VALID,0.107441,VALID,20.0928,VALID,283,VALID,0,
2013-03-29, 03:44:05,VALID,915.403,VALID,0,VALID,97.4349,VALID,0,VALID,20.0928,VALID,283,VALID,0,
2013-03-29, 03:45:05,VALID,915.383,VALID,0,VALID,97.412,VALID,0,VALID,20.0913,VALID,283,VALID,0,
2013-03-29, 03:46:05,VALID,915.375,VALID,0,VALID,97.412,VALID,0.107441,VALID,20.1123,VALID,283,VALID,0,
2013-03-29, 03:47:05,VALID,915.359,VALID,0,VALID,97.4349,VALID,0,VALID,20.0733,VALID,283,VALID,0,
2013-03-29, 03:48:05,VALID,915.324,VALID,0,VALID,97.4196,VALID,0,VALID,20.0733,VALID,283,VALID,0,
2013-03-29, 03:49:05,VALID,915.323,VALID,0,VALID,97.4349,VALID,0,VALID,20.0733,VALID,283,VALID,0,
2013-03-29, 03:50:05,VALID,915.296,VALID,0,VALID,97.4349,VALID,0,VALID,20.0718,VALID,284,VALID,0,
2013-03-29, 03:51:05,VALID,915.318,VALID,0,VALID,97.4196,VALID,0,VALID,20.0523,VALID,285,VALID,0,
2013-03-29, 03:52:05,VALID,915.316,VALID,0,VALID,97.4425,VALID,0,VALID,20.0343,VALID,284,VALID,0,
2013-03-29, 03:53:05,VALID,915.31,VALID,0,VALID,97.4273,VALID,0,VALID,20.0343,VALID,285,VALID,0,
2013-03-29, 03:54:05,VALID,915.264,VALID,0,VALID,97.4273,VALID,0,VALID,20.0343,VALID,313,VALID,0,
2013-03-29, 03:55:05,VALID,915.297,VALID,0,VALID,97.4349,VALID,0,VALID,19.9953,VALID,313,VALID,0,
2013-03-29, 03:56:05,VALID,915.24,VALID,0,VALID,97.4349,VALID,0,VALID,19.9758,VALID,313,VALID,0,
2013-03-29, 03:57:05,VALID,915.256,VALID,0,VALID,97.4273,VALID,0,VALID,19.9953,VALID,313,VALID,0,
2013-03-29, 03:58:05,VALID,915.257,VALID,0,VALID,97.4349,VALID,0,VALID,19.9953,VALID,313,VALID,0,
2013-03-29, 03:59:05,VALID,915.233,VALID,0,VALID,97.4425,VALID,0,VALID,19.9758,VALID,313,VALID,0,